Year,Month,Day,Hour,Minute,Value (Times are PST for temperature in C)
2014,09,21,00,00,17.50
2014,09,21,00,01,17.50
2014,09,21,00,02,17.60
2014,09,21,00,03,17.60
2014,09,21,00,04,17.60
2014,09,21,00,05,17.60
2014,09,21,00,06,17.60
2014,09,21,00,07,17.60
2014,09,21,00,08,17.60
2014,09,21,00,09,17.60
2014,09,21,00,10,17.60
2014,09,21,00,11,17.60
2014,09,21,00,12,17.60
2014,09,21,00,13,17.60
2014,09,21,00,14,17.60
2014,09,21,00,15,17.50
2014,09,21,00,16,17.40
2014,09,21,00,17,17.30
2014,09,21,00,18,17.20
2014,09,21,00,19,17.30
2014,09,21,00,20,17.30
2014,09,21,00,21,17.20
2014,09,21,00,22,17.20
2014,09,21,00,23,17.10
2014,09,21,00,24,17.10
2014,09,21,00,25,17.10
2014,09,21,00,26,17.10
2014,09,21,00,27,17.00
2014,09,21,00,28,17.00
2014,09,21,00,29,17.00
2014,09,21,00,30,17.00
2014,09,21,00,31,17.10
2014,09,21,00,32,17.10
2014,09,21,00,33,17.20
2014,09,21,00,34,17.20
2014,09,21,00,35,17.30
2014,09,21,00,36,17.30
2014,09,21,00,37,17.30
2014,09,21,00,38,17.20
2014,09,21,00,39,17.20
2014,09,21,00,40,17.20
2014,09,21,00,41,17.10
2014,09,21,00,42,17.10
2014,09,21,00,43,17.00
2014,09,21,00,44,17.00
2014,09,21,00,45,17.00
2014,09,21,00,46,17.00
2014,09,21,00,47,17.00
2014,09,21,00,48,17.00
2014,09,21,00,49,17.10
2014,09,21,00,50,17.10
2014,09,21,00,51,17.10
2014,09,21,00,52,17.10
2014,09,21,00,53,17.10
2014,09,21,00,54,17.00
2014,09,21,00,55,17.00
2014,09,21,00,56,17.10
2014,09,21,00,57,17.10
2014,09,21,00,58,17.10
2014,09,21,00,59,17.10
2014,09,21,01,00,17.00
2014,09,21,01,01,17.00
2014,09,21,01,02,17.00
2014,09,21,01,03,17.00
2014,09,21,01,04,17.10
2014,09,21,01,05,17.10
2014,09,21,01,06,17.10
2014,09,21,01,07,17.10
2014,09,21,01,08,17.10
2014,09,21,01,09,17.10
2014,09,21,01,10,17.10
2014,09,21,01,11,17.10
2014,09,21,01,12,17.10
2014,09,21,01,13,17.10
2014,09,21,01,14,17.20
2014,09,21,01,15,17.10
2014,09,21,01,16,17.10
2014,09,21,01,17,17.00
2014,09,21,01,18,17.00
2014,09,21,01,19,16.90
2014,09,21,01,20,16.90
2014,09,21,01,21,16.90
2014,09,21,01,22,16.80
2014,09,21,01,23,16.80
2014,09,21,01,24,16.70
2014,09,21,01,25,16.70
2014,09,21,01,26,16.70
2014,09,21,01,27,16.70
2014,09,21,01,28,16.60
2014,09,21,01,29,16.60
2014,09,21,01,30,16.60
2014,09,21,01,31,16.50
2014,09,21,01,32,16.50
2014,09,21,01,33,16.50
2014,09,21,01,34,16.50
2014,09,21,01,35,16.50
2014,09,21,01,36,16.50
2014,09,21,01,37,16.40
2014,09,21,01,38,16.50
2014,09,21,01,39,16.50
2014,09,21,01,40,16.50
2014,09,21,01,41,16.50
2014,09,21,01,42,16.50
2014,09,21,01,43,16.50
2014,09,21,01,44,16.40
2014,09,21,01,45,16.40
2014,09,21,01,46,16.40
2014,09,21,01,47,16.40
2014,09,21,01,48,16.50
2014,09,21,01,49,16.50
2014,09,21,01,50,16.60
2014,09,21,01,51,16.60
2014,09,21,01,52,16.60
2014,09,21,01,53,16.60
2014,09,21,01,54,16.70
2014,09,21,01,55,16.70
2014,09,21,01,56,16.70
2014,09,21,01,57,16.80
2014,09,21,01,58,16.80
2014,09,21,01,59,16.90
2014,09,21,02,00,16.90
2014,09,21,02,01,17.00
2014,09,21,02,02,17.10
2014,09,21,02,03,17.20
2014,09,21,02,04,17.20
2014,09,21,02,05,17.20
2014,09,21,02,06,17.20
2014,09,21,02,07,17.20
2014,09,21,02,08,17.30
2014,09,21,02,09,17.30
2014,09,21,02,10,17.30
2014,09,21,02,11,17.40
2014,09,21,02,12,17.50
2014,09,21,02,13,17.50
2014,09,21,02,14,17.50
2014,09,21,02,15,17.40
2014,09,21,02,16,17.50
2014,09,21,02,17,17.60
2014,09,21,02,18,17.60
2014,09,21,02,19,17.50
2014,09,21,02,20,17.40
2014,09,21,02,21,17.40
2014,09,21,02,22,17.50
2014,09,21,02,23,17.60
2014,09,21,02,24,17.60
2014,09,21,02,25,17.60
2014,09,21,02,26,17.60
2014,09,21,02,27,17.50
2014,09,21,02,28,17.50
2014,09,21,02,29,17.50
2014,09,21,02,30,17.60
2014,09,21,02,31,17.60
2014,09,21,02,32,17.60
2014,09,21,02,33,17.60
2014,09,21,02,34,17.50
2014,09,21,02,35,17.60
2014,09,21,02,36,17.60
2014,09,21,02,37,17.60
2014,09,21,02,38,17.60
2014,09,21,02,39,17.60
2014,09,21,02,40,17.50
2014,09,21,02,41,17.60
2014,09,21,02,42,17.60
2014,09,21,02,43,17.50
2014,09,21,02,44,17.50
2014,09,21,02,45,17.50
2014,09,21,02,46,17.50
2014,09,21,02,47,17.50
2014,09,21,02,48,17.50
2014,09,21,02,49,17.40
2014,09,21,02,50,17.40
2014,09,21,02,51,17.40
2014,09,21,02,52,17.40
2014,09,21,02,53,17.40
2014,09,21,02,54,17.40
2014,09,21,02,55,17.40
2014,09,21,02,56,17.40
2014,09,21,02,57,17.30
2014,09,21,02,58,17.30
2014,09,21,02,59,17.30
2014,09,21,03,00,17.40
2014,09,21,03,01,17.40
2014,09,21,03,02,17.40
2014,09,21,03,03,17.40
2014,09,21,03,04,17.40
2014,09,21,03,05,17.40
2014,09,21,03,06,17.40
2014,09,21,03,07,17.40
2014,09,21,03,08,17.30
2014,09,21,03,09,17.30
2014,09,21,03,10,17.20
2014,09,21,03,11,17.20
2014,09,21,03,12,17.20
2014,09,21,03,13,17.20
2014,09,21,03,14,17.20
2014,09,21,03,15,17.20
2014,09,21,03,16,17.20
2014,09,21,03,17,17.10
2014,09,21,03,18,17.10
2014,09,21,03,19,17.10
2014,09,21,03,20,17.10
2014,09,21,03,21,17.00
2014,09,21,03,22,17.00
2014,09,21,03,23,17.00
2014,09,21,03,24,16.90
2014,09,21,03,25,16.90
2014,09,21,03,26,16.80
2014,09,21,03,27,16.80
2014,09,21,03,28,16.80
2014,09,21,03,29,16.70
2014,09,21,03,30,16.70
2014,09,21,03,31,16.70
2014,09,21,03,32,16.60
2014,09,21,03,33,16.60
2014,09,21,03,34,16.60
2014,09,21,03,35,16.60
2014,09,21,03,36,16.60
2014,09,21,03,37,16.60
2014,09,21,03,38,16.60
2014,09,21,03,39,16.60
2014,09,21,03,40,16.60
2014,09,21,03,41,16.60
2014,09,21,03,42,16.60
2014,09,21,03,43,16.60
2014,09,21,03,44,16.60
2014,09,21,03,45,16.60
2014,09,21,03,46,16.60
2014,09,21,03,47,16.60
2014,09,21,03,48,16.60
2014,09,21,03,49,16.60
2014,09,21,03,50,16.60
2014,09,21,03,51,16.70
2014,09,21,03,52,16.70
2014,09,21,03,53,16.70
2014,09,21,03,54,16.70
2014,09,21,03,55,16.70
2014,09,21,03,56,16.60
2014,09,21,03,57,16.60
2014,09,21,03,58,16.50
2014,09,21,03,59,16.50
2014,09,21,04,00,16.50
2014,09,21,04,01,16.50
2014,09,21,04,02,16.50
2014,09,21,04,03,16.40
2014,09,21,04,04,16.40
2014,09,21,04,05,16.40
2014,09,21,04,06,16.40
2014,09,21,04,07,16.40
2014,09,21,04,08,16.40
2014,09,21,04,09,16.40
2014,09,21,04,10,16.40
2014,09,21,04,11,16.40
2014,09,21,04,12,16.40
2014,09,21,04,13,16.40
2014,09,21,04,14,16.40
2014,09,21,04,15,16.40
2014,09,21,04,16,16.40
2014,09,21,04,17,16.30
2014,09,21,04,18,16.30
2014,09,21,04,19,16.30
2014,09,21,04,20,16.20
2014,09,21,04,21,16.30
2014,09,21,04,22,16.30
2014,09,21,04,23,16.30
2014,09,21,04,24,16.30
2014,09,21,04,25,16.30
2014,09,21,04,26,16.30
2014,09,21,04,27,16.30
2014,09,21,04,28,16.30
2014,09,21,04,29,16.30
2014,09,21,04,30,16.30
2014,09,21,04,31,16.40
2014,09,21,04,32,16.50
2014,09,21,04,33,16.50
2014,09,21,04,34,16.50
2014,09,21,04,35,16.40
2014,09,21,04,36,16.50
2014,09,21,04,37,16.50
2014,09,21,04,38,16.60
2014,09,21,04,39,16.80
2014,09,21,04,40,16.80
2014,09,21,04,41,16.80
2014,09,21,04,42,16.70
2014,09,21,04,43,16.70
2014,09,21,04,44,16.70
2014,09,21,04,45,16.70
2014,09,21,04,46,16.80
2014,09,21,04,47,16.80
2014,09,21,04,48,16.70
2014,09,21,04,49,16.70
2014,09,21,04,50,16.70
2014,09,21,04,51,16.70
2014,09,21,04,52,16.70
2014,09,21,04,53,16.70
2014,09,21,04,54,16.70
2014,09,21,04,55,16.80
2014,09,21,04,56,16.80
2014,09,21,04,57,16.80
2014,09,21,04,58,16.80
2014,09,21,04,59,16.80
2014,09,21,05,00,16.80
2014,09,21,05,01,16.80
2014,09,21,05,02,16.80
2014,09,21,05,03,16.80
2014,09,21,05,04,16.80
2014,09,21,05,05,16.90
2014,09,21,05,06,16.90
2014,09,21,05,07,17.00
2014,09,21,05,08,17.10
2014,09,21,05,09,17.20
2014,09,21,05,10,17.20
2014,09,21,05,11,17.30
2014,09,21,05,12,17.40
2014,09,21,05,13,17.60
2014,09,21,05,14,17.60
2014,09,21,05,15,17.60
2014,09,21,05,16,17.60
2014,09,21,05,17,17.60
2014,09,21,05,18,17.60
2014,09,21,05,19,17.50
2014,09,21,05,20,17.50
2014,09,21,05,21,17.60
2014,09,21,05,22,17.60
2014,09,21,05,23,17.60
2014,09,21,05,24,17.70
2014,09,21,05,25,17.80
2014,09,21,05,26,17.90
2014,09,21,05,27,17.90
2014,09,21,05,28,17.90
2014,09,21,05,29,17.90
2014,09,21,05,30,17.90
2014,09,21,05,31,17.90
2014,09,21,05,32,17.90
2014,09,21,05,33,17.80
2014,09,21,05,34,17.50
2014,09,21,05,35,17.40
2014,09,21,05,36,17.20
2014,09,21,05,37,17.10
2014,09,21,05,38,17.10
2014,09,21,05,39,17.00
2014,09,21,05,40,17.00
2014,09,21,05,41,16.90
2014,09,21,05,42,16.90
2014,09,21,05,43,16.80
2014,09,21,05,44,16.70
2014,09,21,05,45,16.70
2014,09,21,05,46,16.60
2014,09,21,05,47,16.60
2014,09,21,05,48,16.50
2014,09,21,05,49,16.50
2014,09,21,05,50,16.40
2014,09,21,05,51,16.50
2014,09,21,05,52,16.50
2014,09,21,05,53,16.50
2014,09,21,05,54,16.50
2014,09,21,05,55,16.60
2014,09,21,05,56,16.60
2014,09,21,05,57,16.60
2014,09,21,05,58,16.70
2014,09,21,05,59,16.70
2014,09,21,06,00,16.70
2014,09,21,06,01,16.70
2014,09,21,06,02,16.80
2014,09,21,06,03,16.80
2014,09,21,06,04,16.80
2014,09,21,06,05,16.80
2014,09,21,06,06,16.80
2014,09,21,06,07,16.80
2014,09,21,06,08,16.90
2014,09,21,06,09,16.90
2014,09,21,06,10,16.90
2014,09,21,06,11,16.90
2014,09,21,06,12,16.90
2014,09,21,06,13,16.90
2014,09,21,06,14,16.90
2014,09,21,06,15,16.90
2014,09,21,06,16,16.90
2014,09,21,06,17,16.90
2014,09,21,06,18,16.90
2014,09,21,06,19,16.90
2014,09,21,06,20,16.80
2014,09,21,06,21,16.80
2014,09,21,06,22,16.80
2014,09,21,06,23,16.80
2014,09,21,06,24,16.80
2014,09,21,06,25,16.80
2014,09,21,06,26,16.70
2014,09,21,06,27,16.70
2014,09,21,06,28,16.70
2014,09,21,06,29,16.80
2014,09,21,06,30,16.90
2014,09,21,06,31,17.00
2014,09,21,06,32,17.10
2014,09,21,06,33,17.10
2014,09,21,06,34,17.10
2014,09,21,06,35,17.10
2014,09,21,06,36,17.10
2014,09,21,06,37,17.10
2014,09,21,06,38,17.10
2014,09,21,06,39,17.10
2014,09,21,06,40,17.10
2014,09,21,06,41,17.10
2014,09,21,06,42,17.10
2014,09,21,06,43,17.10
2014,09,21,06,44,17.10
2014,09,21,06,45,17.10
2014,09,21,06,46,17.10
2014,09,21,06,47,17.00
2014,09,21,06,48,17.00
2014,09,21,06,49,16.90
2014,09,21,06,50,16.90
2014,09,21,06,51,16.90
2014,09,21,06,52,16.90
2014,09,21,06,53,17.00
2014,09,21,06,54,17.00
2014,09,21,06,55,17.00
2014,09,21,06,56,17.10
2014,09,21,06,57,17.00
2014,09,21,06,58,16.90
2014,09,21,06,59,16.90
2014,09,21,07,00,16.90
2014,09,21,07,01,16.80
2014,09,21,07,02,16.80
2014,09,21,07,03,16.80
2014,09,21,07,04,16.80
2014,09,21,07,05,16.80
2014,09,21,07,06,16.80
2014,09,21,07,07,16.70
2014,09,21,07,08,16.70
2014,09,21,07,09,16.70
2014,09,21,07,10,16.70
2014,09,21,07,11,16.70
2014,09,21,07,12,16.70
2014,09,21,07,13,16.60
2014,09,21,07,14,16.60
2014,09,21,07,15,16.60
2014,09,21,07,16,16.60
2014,09,21,07,17,16.60
2014,09,21,07,18,16.60
2014,09,21,07,19,16.60
2014,09,21,07,20,16.60
2014,09,21,07,21,16.60
2014,09,21,07,22,16.60
2014,09,21,07,23,16.60
2014,09,21,07,24,16.50
2014,09,21,07,25,16.60
2014,09,21,07,26,16.60
2014,09,21,07,27,16.50
2014,09,21,07,28,16.50
2014,09,21,07,29,16.40
2014,09,21,07,30,16.40
2014,09,21,07,31,16.40
2014,09,21,07,32,16.40
2014,09,21,07,33,16.40
2014,09,21,07,34,16.30
2014,09,21,07,35,16.30
2014,09,21,07,36,16.30
2014,09,21,07,37,16.30
2014,09,21,07,38,16.30
2014,09,21,07,39,16.30
2014,09,21,07,40,16.30
2014,09,21,07,41,16.30
2014,09,21,07,42,16.30
2014,09,21,07,43,16.30
2014,09,21,07,44,16.30
2014,09,21,07,45,16.30
2014,09,21,07,46,16.30
2014,09,21,07,47,16.30
2014,09,21,07,48,16.30
2014,09,21,07,49,16.30
2014,09,21,07,50,16.30
2014,09,21,07,51,16.30
2014,09,21,07,52,16.30
2014,09,21,07,53,16.30
2014,09,21,07,54,16.30
2014,09,21,07,55,16.30
2014,09,21,07,56,16.40
2014,09,21,07,57,16.40
2014,09,21,07,58,16.50
2014,09,21,07,59,16.50
2014,09,21,08,00,16.50
2014,09,21,08,01,16.50
2014,09,21,08,02,16.50
2014,09,21,08,03,16.40
2014,09,21,08,04,16.40
2014,09,21,08,05,16.40
2014,09,21,08,06,16.40
2014,09,21,08,07,16.30
2014,09,21,08,08,16.20
2014,09,21,08,09,16.20
2014,09,21,08,10,16.10
2014,09,21,08,11,16.10
2014,09,21,08,12,16.10
2014,09,21,08,13,16.10
2014,09,21,08,14,16.10
2014,09,21,08,15,16.10
2014,09,21,08,16,16.10
2014,09,21,08,17,16.10
2014,09,21,08,18,16.10
2014,09,21,08,19,16.10
2014,09,21,08,20,16.10
2014,09,21,08,21,16.10
2014,09,21,08,22,16.10
2014,09,21,08,23,16.10
2014,09,21,08,24,16.00
2014,09,21,08,25,16.00
2014,09,21,08,26,16.10
2014,09,21,08,27,16.10
2014,09,21,08,28,16.20
2014,09,21,08,29,16.20
2014,09,21,08,30,16.20
2014,09,21,08,31,16.30
2014,09,21,08,32,16.30
2014,09,21,08,33,16.30
2014,09,21,08,34,16.30
2014,09,21,08,35,16.30
2014,09,21,08,36,16.30
2014,09,21,08,37,16.40
2014,09,21,08,38,16.40
2014,09,21,08,39,16.40
2014,09,21,08,40,16.50
2014,09,21,08,41,16.50
2014,09,21,08,42,16.50
2014,09,21,08,43,16.60
2014,09,21,08,44,16.60
2014,09,21,08,45,16.50
2014,09,21,08,46,16.50
2014,09,21,08,47,16.60
2014,09,21,08,48,16.60
2014,09,21,08,49,16.60
2014,09,21,08,50,16.60
2014,09,21,08,51,16.50
2014,09,21,08,52,16.50
2014,09,21,08,53,16.40
2014,09,21,08,54,16.40
2014,09,21,08,55,16.50
2014,09,21,08,56,16.50
2014,09,21,08,57,16.50
2014,09,21,08,58,16.60
2014,09,21,08,59,16.60
2014,09,21,09,00,16.60
2014,09,21,09,01,16.70
2014,09,21,09,02,16.70
2014,09,21,09,03,16.80
2014,09,21,09,04,16.90
2014,09,21,09,05,17.00
2014,09,21,09,06,17.10
2014,09,21,09,07,17.20
2014,09,21,09,08,17.30
2014,09,21,09,09,17.40
2014,09,21,09,10,17.40
2014,09,21,09,11,17.50
2014,09,21,09,12,17.50
2014,09,21,09,13,17.50
2014,09,21,09,14,17.50
2014,09,21,09,15,17.40
2014,09,21,09,16,17.40
2014,09,21,09,17,17.40
2014,09,21,09,18,17.30
2014,09,21,09,19,17.30
2014,09,21,09,20,17.30
2014,09,21,09,21,17.20
2014,09,21,09,22,17.20
2014,09,21,09,23,17.20
2014,09,21,09,24,17.30
2014,09,21,09,25,17.30
2014,09,21,09,26,17.30
2014,09,21,09,27,17.40
2014,09,21,09,28,17.40
2014,09,21,09,29,17.40
2014,09,21,09,30,17.50
2014,09,21,09,31,17.40
2014,09,21,09,32,17.30
2014,09,21,09,33,17.30
2014,09,21,09,34,17.20
2014,09,21,09,35,17.10
2014,09,21,09,36,17.00
2014,09,21,09,37,16.90
2014,09,21,09,38,16.80
2014,09,21,09,39,16.60
2014,09,21,09,40,16.50
2014,09,21,09,41,16.40
2014,09,21,09,42,16.30
2014,09,21,09,43,16.30
2014,09,21,09,44,16.30
2014,09,21,09,45,16.30
2014,09,21,09,46,16.20
2014,09,21,09,47,16.20
2014,09,21,09,48,16.20
2014,09,21,09,49,16.10
2014,09,21,09,50,16.10
2014,09,21,09,51,16.00
2014,09,21,09,52,16.00
2014,09,21,09,53,15.90
2014,09,21,09,54,15.90
2014,09,21,09,55,16.00
2014,09,21,09,56,16.00
2014,09,21,09,57,16.10
2014,09,21,09,58,16.10
2014,09,21,09,59,16.20
2014,09,21,10,00,16.20
2014,09,21,10,01,16.30
2014,09,21,10,02,16.40
2014,09,21,10,03,16.50
2014,09,21,10,04,16.60
2014,09,21,10,05,16.70
2014,09,21,10,06,16.80
2014,09,21,10,07,16.90
2014,09,21,10,08,16.90
2014,09,21,10,09,17.00
2014,09,21,10,10,17.10
2014,09,21,10,11,17.10
2014,09,21,10,12,17.20
2014,09,21,10,13,17.30
2014,09,21,10,14,17.40
2014,09,21,10,15,17.40
2014,09,21,10,16,17.40
2014,09,21,10,17,17.40
2014,09,21,10,18,17.40
2014,09,21,10,19,17.30
2014,09,21,10,20,17.30
2014,09,21,10,21,17.20
2014,09,21,10,22,17.20
2014,09,21,10,23,17.20
2014,09,21,10,24,17.30
2014,09,21,10,25,17.30
2014,09,21,10,26,17.40
2014,09,21,10,27,17.40
2014,09,21,10,28,17.50
2014,09,21,10,29,17.50
2014,09,21,10,30,17.60
2014,09,21,10,31,17.60
2014,09,21,10,32,17.70
2014,09,21,10,33,17.70
2014,09,21,10,34,17.70
2014,09,21,10,35,17.80
2014,09,21,10,36,17.80
2014,09,21,10,37,17.80
2014,09,21,10,38,17.90
2014,09,21,10,39,18.00
2014,09,21,10,40,18.10
2014,09,21,10,41,18.30
2014,09,21,10,42,18.40
2014,09,21,10,43,18.50
2014,09,21,10,44,18.60
2014,09,21,10,45,18.80
2014,09,21,10,46,18.90
2014,09,21,10,47,19.10
2014,09,21,10,48,19.20
2014,09,21,10,49,19.30
2014,09,21,10,50,19.30
2014,09,21,10,51,19.40
2014,09,21,10,52,19.40
2014,09,21,10,53,19.50
2014,09,21,10,54,19.40
2014,09,21,10,55,19.40
2014,09,21,10,56,19.50
2014,09,21,10,57,19.50
2014,09,21,10,58,19.40
2014,09,21,10,59,19.40
2014,09,21,11,00,19.40
2014,09,21,11,01,19.50
2014,09,21,11,02,19.60
2014,09,21,11,03,19.70
2014,09,21,11,04,19.80
2014,09,21,11,05,19.80
2014,09,21,11,06,19.90
2014,09,21,11,07,19.90
2014,09,21,11,08,20.00
2014,09,21,11,09,20.10
2014,09,21,11,10,20.20
2014,09,21,11,11,20.20
2014,09,21,11,12,20.20
2014,09,21,11,13,20.10
2014,09,21,11,14,19.90
2014,09,21,11,15,19.80
2014,09,21,11,16,19.80
2014,09,21,11,17,19.80
2014,09,21,11,18,19.80
2014,09,21,11,19,19.60
2014,09,21,11,20,19.40
2014,09,21,11,21,19.20
2014,09,21,11,22,19.00
2014,09,21,11,23,18.90
2014,09,21,11,24,18.80
2014,09,21,11,25,18.70
2014,09,21,11,26,18.80
2014,09,21,11,27,18.80
2014,09,21,11,28,18.90
2014,09,21,11,29,18.90
2014,09,21,11,30,19.00
2014,09,21,11,31,19.00
2014,09,21,11,32,19.00
2014,09,21,11,33,19.00
2014,09,21,11,34,19.00
2014,09,21,11,35,18.90
2014,09,21,11,36,19.00
2014,09,21,11,37,19.00
2014,09,21,11,38,19.10
2014,09,21,11,39,19.10
2014,09,21,11,40,19.20
2014,09,21,11,41,19.20
2014,09,21,11,42,19.20
2014,09,21,11,43,19.20
2014,09,21,11,44,19.20
2014,09,21,11,45,19.20
2014,09,21,11,46,19.20
2014,09,21,11,47,19.00
2014,09,21,11,48,18.90
2014,09,21,11,49,18.70
2014,09,21,11,50,18.60
2014,09,21,11,51,18.60
2014,09,21,11,52,18.50
2014,09,21,11,53,18.50
2014,09,21,11,54,18.50
2014,09,21,11,55,18.50
2014,09,21,11,56,18.60
2014,09,21,11,57,18.70
2014,09,21,11,58,18.70
2014,09,21,11,59,18.80
2014,09,21,12,00,18.80
2014,09,21,12,01,18.90
2014,09,21,12,02,18.90
2014,09,21,12,03,18.90
2014,09,21,12,04,18.90
2014,09,21,12,05,18.90
2014,09,21,12,06,18.80
2014,09,21,12,07,18.70
2014,09,21,12,08,18.70
2014,09,21,12,09,18.60
2014,09,21,12,10,18.60
2014,09,21,12,11,18.60
2014,09,21,12,12,18.60
2014,09,21,12,13,18.60
2014,09,21,12,14,18.60
2014,09,21,12,15,18.60
2014,09,21,12,16,18.60
2014,09,21,12,17,18.60
2014,09,21,12,18,18.60
2014,09,21,12,19,18.50
2014,09,21,12,20,18.40
2014,09,21,12,21,18.30
2014,09,21,12,22,18.20
2014,09,21,12,23,18.20
2014,09,21,12,24,18.20
2014,09,21,12,25,18.20
2014,09,21,12,26,18.20
2014,09,21,12,27,18.20
2014,09,21,12,28,18.20
2014,09,21,12,29,18.30
2014,09,21,12,30,18.40
2014,09,21,12,31,18.50
2014,09,21,12,32,18.60
2014,09,21,12,33,18.70
2014,09,21,12,34,18.70
2014,09,21,12,35,18.80
2014,09,21,12,36,18.90
2014,09,21,12,37,19.00
2014,09,21,12,38,19.10
2014,09,21,12,39,19.10
2014,09,21,12,40,19.10
2014,09,21,12,41,19.10
2014,09,21,12,42,19.00
2014,09,21,12,43,18.90
2014,09,21,12,44,18.90
2014,09,21,12,45,19.00
2014,09,21,12,46,19.00
2014,09,21,12,47,19.10
2014,09,21,12,48,19.10
2014,09,21,12,49,19.20
2014,09,21,12,50,19.30
2014,09,21,12,51,19.40
2014,09,21,12,52,19.40
2014,09,21,12,53,19.40
2014,09,21,12,54,19.50
2014,09,21,12,55,19.60
2014,09,21,12,56,19.60
2014,09,21,12,57,19.70
2014,09,21,12,58,19.80
2014,09,21,12,59,19.90
2014,09,21,13,00,19.90
2014,09,21,13,01,19.90
2014,09,21,13,02,19.80
2014,09,21,13,03,19.80
2014,09,21,13,04,19.90
2014,09,21,13,05,19.90
2014,09,21,13,06,19.90
2014,09,21,13,07,19.90
2014,09,21,13,08,19.80
2014,09,21,13,09,19.70
2014,09,21,13,10,19.60
2014,09,21,13,11,19.50
2014,09,21,13,12,19.30
2014,09,21,13,13,19.30
2014,09,21,13,14,19.40
2014,09,21,13,15,19.40
2014,09,21,13,16,19.50
2014,09,21,13,17,19.50
2014,09,21,13,18,19.60
2014,09,21,13,19,19.50
2014,09,21,13,20,19.50
2014,09,21,13,21,19.50
2014,09,21,13,22,19.50
2014,09,21,13,23,19.60
2014,09,21,13,24,19.70
2014,09,21,13,25,19.80
2014,09,21,13,26,19.90
2014,09,21,13,27,20.00
2014,09,21,13,28,20.10
2014,09,21,13,29,20.20
2014,09,21,13,30,20.20
2014,09,21,13,31,20.20
2014,09,21,13,32,20.30
2014,09,21,13,33,20.40
2014,09,21,13,34,20.40
2014,09,21,13,35,20.40
2014,09,21,13,36,20.40
2014,09,21,13,37,20.40
2014,09,21,13,38,20.60
2014,09,21,13,39,20.70
2014,09,21,13,40,20.80
2014,09,21,13,41,20.90
2014,09,21,13,42,21.10
2014,09,21,13,43,21.20
2014,09,21,13,44,21.30
2014,09,21,13,45,21.30
2014,09,21,13,46,21.30
2014,09,21,13,47,21.30
2014,09,21,13,48,21.30
2014,09,21,13,49,21.40
2014,09,21,13,50,21.50
2014,09,21,13,51,21.50
2014,09,21,13,52,21.50
2014,09,21,13,53,21.50
2014,09,21,13,54,21.50
2014,09,21,13,55,21.50
2014,09,21,13,56,21.60
2014,09,21,13,57,21.70
2014,09,21,13,58,21.80
2014,09,21,13,59,21.80
2014,09,21,14,00,21.80
2014,09,21,14,01,21.80
2014,09,21,14,02,21.90
2014,09,21,14,03,21.90
2014,09,21,14,04,21.90
2014,09,21,14,05,21.80
2014,09,21,14,06,21.80
2014,09,21,14,07,21.70
2014,09,21,14,08,21.60
2014,09,21,14,09,21.50
2014,09,21,14,10,21.40
2014,09,21,14,11,21.30
2014,09,21,14,12,21.30
2014,09,21,14,13,21.20
2014,09,21,14,14,21.20
2014,09,21,14,15,21.10
2014,09,21,14,16,21.10
2014,09,21,14,17,21.10
2014,09,21,14,18,21.10
2014,09,21,14,19,21.20
2014,09,21,14,20,21.20
2014,09,21,14,21,21.20
2014,09,21,14,22,21.30
2014,09,21,14,23,21.30
2014,09,21,14,24,21.40
2014,09,21,14,25,21.40
2014,09,21,14,26,21.40
2014,09,21,14,27,21.40
2014,09,21,14,28,21.40
2014,09,21,14,29,21.40
2014,09,21,14,30,21.50
2014,09,21,14,31,21.50
2014,09,21,14,32,21.40
2014,09,21,14,33,22.20
2014,09,21,14,34,22.50
2014,09,21,14,35,22.50
2014,09,21,14,36,22.50
2014,09,21,14,37,22.40
2014,09,21,14,38,22.40
2014,09,21,14,39,22.40
2014,09,21,14,40,22.30
2014,09,21,14,41,22.30
2014,09,21,14,42,22.30
2014,09,21,14,43,22.30
2014,09,21,14,44,22.30
2014,09,21,14,45,22.20
2014,09,21,14,46,22.20
2014,09,21,14,47,22.10
2014,09,21,14,48,22.10
2014,09,21,14,49,22.10
2014,09,21,14,50,22.00
2014,09,21,14,51,22.00
2014,09,21,14,52,22.00
2014,09,21,14,53,22.00
2014,09,21,14,54,22.10
2014,09,21,14,55,22.10
2014,09,21,14,56,22.20
2014,09,21,14,57,22.20
2014,09,21,14,58,22.20
2014,09,21,14,59,22.20
2014,09,21,15,00,22.20
2014,09,21,15,01,22.20
2014,09,21,15,02,22.10
2014,09,21,15,03,22.00
2014,09,21,15,04,22.00
2014,09,21,15,05,22.00
2014,09,21,15,06,22.00
2014,09,21,15,07,22.10
2014,09,21,15,08,22.10
2014,09,21,15,09,22.20
2014,09,21,15,10,22.20
2014,09,21,15,11,22.30
2014,09,21,15,12,22.40
2014,09,21,15,13,22.40
2014,09,21,15,14,22.40
2014,09,21,15,15,22.40
2014,09,21,15,16,22.30
2014,09,21,15,17,22.20
2014,09,21,15,18,22.20
2014,09,21,15,19,22.20
2014,09,21,15,20,22.20
2014,09,21,15,21,22.20
2014,09,21,15,22,22.20
2014,09,21,15,23,22.30
2014,09,21,15,24,22.30
2014,09,21,15,25,22.30
2014,09,21,15,26,22.30
2014,09,21,15,27,22.30
2014,09,21,15,28,22.20
2014,09,21,15,29,22.30
2014,09,21,15,30,22.30
2014,09,21,15,31,22.30
2014,09,21,15,32,22.40
2014,09,21,15,33,22.40
2014,09,21,15,34,22.50
2014,09,21,15,35,22.60
2014,09,21,15,36,22.80
2014,09,21,15,37,22.90
2014,09,21,15,38,23.00
2014,09,21,15,39,23.10
2014,09,21,15,40,23.20
2014,09,21,15,41,23.30
2014,09,21,15,42,23.40
2014,09,21,15,43,23.60
2014,09,21,15,44,23.70
2014,09,21,15,45,23.70
2014,09,21,15,46,23.80
2014,09,21,15,47,23.90
2014,09,21,15,48,23.90
2014,09,21,15,49,24.00
2014,09,21,15,50,24.10
2014,09,21,15,51,24.10
2014,09,21,15,52,24.10
2014,09,21,15,53,24.10
2014,09,21,15,54,24.10
2014,09,21,15,55,24.10
2014,09,21,15,56,24.10
2014,09,21,15,57,24.10
2014,09,21,15,58,24.00
2014,09,21,15,59,23.90
2014,09,21,16,00,23.80
2014,09,21,16,01,23.70
2014,09,21,16,02,23.70
2014,09,21,16,03,23.60
2014,09,21,16,04,23.40
2014,09,21,16,05,23.30
2014,09,21,16,06,23.30
2014,09,21,16,07,23.20
2014,09,21,16,08,23.20
2014,09,21,16,09,23.20
2014,09,21,16,10,23.20
2014,09,21,16,11,23.20
2014,09,21,16,12,23.10
2014,09,21,16,13,23.00
2014,09,21,16,14,22.90
2014,09,21,16,15,22.90
2014,09,21,16,16,22.90
2014,09,21,16,17,22.80
2014,09,21,16,18,22.80
2014,09,21,16,19,22.80
2014,09,21,16,20,22.80
2014,09,21,16,21,22.70
2014,09,21,16,22,22.60
2014,09,21,16,23,22.60
2014,09,21,16,24,22.50
2014,09,21,16,25,22.50
2014,09,21,16,26,22.40
2014,09,21,16,27,22.30
2014,09,21,16,28,22.30
2014,09,21,16,29,22.20
2014,09,21,16,30,22.20
2014,09,21,16,31,22.10
2014,09,21,16,32,22.10
2014,09,21,16,33,22.10
2014,09,21,16,34,22.10
2014,09,21,16,35,22.10
2014,09,21,16,36,22.10
2014,09,21,16,37,22.10
2014,09,21,16,38,22.10
2014,09,21,16,39,22.10
2014,09,21,16,40,22.10
2014,09,21,16,41,22.10
2014,09,21,16,42,22.10
2014,09,21,16,43,22.10
2014,09,21,16,44,22.00
2014,09,21,16,45,21.90
2014,09,21,16,46,21.90
2014,09,21,16,47,21.80
2014,09,21,16,48,21.80
2014,09,21,16,49,21.80
2014,09,21,16,50,21.80
2014,09,21,16,51,21.80
2014,09,21,16,52,21.80
2014,09,21,16,53,21.80
2014,09,21,16,54,21.80
2014,09,21,16,55,21.90
2014,09,21,16,56,21.80
2014,09,21,16,57,21.80
2014,09,21,16,58,21.80
2014,09,21,16,59,21.70
2014,09,21,17,00,21.70
2014,09,21,17,01,21.60
2014,09,21,17,02,21.60
2014,09,21,17,03,21.60
2014,09,21,17,04,21.50
2014,09,21,17,05,21.40
2014,09,21,17,06,21.40
2014,09,21,17,07,21.40
2014,09,21,17,08,21.30
2014,09,21,17,09,21.30
2014,09,21,17,10,21.30
2014,09,21,17,11,21.30
2014,09,21,17,12,21.30
2014,09,21,17,13,21.30
2014,09,21,17,14,21.30
2014,09,21,17,15,21.30
2014,09,21,17,16,21.30
2014,09,21,17,17,21.30
2014,09,21,17,18,21.20
2014,09,21,17,19,21.20